Home   Weather   Cozumel   Past weeks

Flag for Mexico Past Weather in Cozumel, Quintana Roo, Mexico — Yesterday and Last 2 Weeks

79 °F

Passing clouds.

Feels Like: 82 °F
Forecast: 78 / 83 °F
Wind: 12 mph from East

Location: Cozumel Civ / Mil

Current Time: Oct 23, 2016 at 9:17:45 AM

Latest Report: Oct 23, 2016 at 8:41 AM

Visibility: 8 mi

Pressure: 30.06 "Hg

Humidity: 79%

Dew Point: 72 °F

Location of CozumelLocation

Past Weather in Cozumel — Graph


Cozumel Temperature Yesterday

Maximum temperature yesterday: 88 °F (at 2:55 PM)
Minimum temperature yesterday: 75 °F (at 9:50 PM)
Average temperature yesterday: 81 °F

High & Low Weather Summary for the Past Weeks

High88 °F (Oct 8, 1:43 PM)100% (Oct 19, 9:48 AM)30.04 "Hg (Oct 19, 9:48 AM)
Low72 °F (Oct 20, 3:42 AM)49% (Oct 22, 2:55 PM)29.78 "Hg (Oct 17, 4:51 PM)
Average80 °F81%29.91 "Hg
* Reported Oct 8 9:48 AM — Oct 23 7:49 AM, Cozumel, Weather by CustomWeather, © 2016

Note: Actual official high and low records may vary slightly from our data, if they occured in-between our weather recording intervals... More about our weather records


Cozumel Weather History for the Previous 24 Hours

Scroll right to see more
Time TempWeatherWind HumidityBarometerVisibility
7:49 AM
Sun, Oct 23
77 °FScattered clouds.6 mph89%30.04 "Hg7 mi
6:51 AM75 °FPassing clouds.No wind94%30.03 "Hg6 mi
3:41 AM77 °FPassing clouds.5 mph89%30.01 "Hg7 mi
2:41 AM73 °FPassing clouds.No wind100%29.99 "Hg7 mi
1:44 AM75 °FPassing clouds.3 mph94%30.00 "Hg6 mi
12:46 AM73 °FPassing clouds.No wind94%30.03 "Hg7 mi
11:47 PM
Sat, Oct 22
75 °FPassing clouds.6 mph94%30.02 "Hg7 mi
10:46 PM81 °FPassing clouds.7 mph70%30.01 "Hg7 mi
9:50 PM75 °FPassing clouds.No wind83%30.02 "Hg7 mi
7:45 PM81 °FPassing clouds.No wind62%29.97 "Hg7 mi
6:50 PM81 °FScattered clouds.No wind74%29.97 "Hg7 mi
5:48 PM84 °FPassing clouds.6 mph66%29.94 "Hg8 mi
4:52 PM84 °FPassing clouds.9 mph62%29.92 "Hg8 mi
2:55 PM88 °FPassing clouds.8 mph49%29.92 "Hg8 mi
1:52 PM86 °FPassing clouds.8 mph55%29.93 "Hg8 mi
12:46 PM84 °FPassing clouds.8 mph62%29.97 "Hg8 mi
11:43 AM84 °FPassing clouds.10 mph62%29.97 "Hg8 mi
Weather by CustomWeather, © 2016

See weather overviewHow to use our weather pages